Location: Chapleau
(47.8423°N, 83.4026°W)
Time: 23:38:55
(UTC-04:00)

ISS - Visible Passes

Search period start: 25 September 2017 00:00
Search period end: 05 October 2017 00:00
Orbit: 401 x 407 km, 51.6° (Epoch: 26 September)

Date Brightness Start Highest point End Pass type
(mag) Time Alt. Az. Time Alt. Az. Time Alt. Az.
25 Sep -1.7 21:29:10 10° SW 21:30:17 19° SSW 21:30:17 19° SSW visible
26 Sep -2.8 20:37:15 10° SSW 20:40:05 27° SE 20:40:35 26° SE visible
26 Sep -0.6 22:13:06 10° WSW 22:13:16 11° WSW 22:13:16 11° WSW visible
27 Sep -3.3 21:20:43 10° WSW 21:23:22 55° WSW 21:23:22 55° WSW visible
28 Sep -3.7 20:28:27 10° SW 20:31:39 53° SSE 20:33:19 25° E visible
28 Sep -1.0 22:05:00 10° W 22:05:59 18° W 22:05:59 18° W visible
29 Sep -3.5 21:12:28 10° W 21:15:43 61° NNW 21:15:48 60° N visible
30 Sep -3.8 20:20:01 10° WSW 20:23:17 85° NNW 20:25:33 19° ENE visible
30 Sep -1.2 21:56:52 10° WNW 21:58:11 21° WNW 21:58:11 21° WNW visible
01 Oct -3.1 21:04:18 10° W 21:07:28 45° N 21:07:50 43° NNE visible
02 Oct -3.3 20:11:44 10° W 20:14:57 55° NNW 20:17:26 16° ENE visible
02 Oct -1.3 21:48:37 10° WNW 21:50:04 22° NW 21:50:04 22° NW visible
03 Oct -3.0 20:56:05 10° WNW 20:59:13 40° N 20:59:37 38° NNE visible
04 Oct -3.0 20:03:29 10° W 20:06:39 43° N 20:09:09 15° ENE visible
04 Oct -1.5 21:40:15 10° WNW 21:41:47 24° NW 21:41:47 24° NW visible
